Volver al catálogo

COSMOS 1823 DEB

ActivoLEO
NORAD 18751·DEBRIS·🇷🇺 Russia

Lanzado Feb 20, 1987 desde Plesetsk Cosmodrome

Loading…

Próximos Pases (próximas 24 horas)

TLE

ActualizadoSource: Space-Track

Época: Sep 14, 2026, 09:07 UTC

1 18751U 87020AC  26257.38004782  .00000017  00000-0  27236-3 0  9994
2 18751  73.6265 261.3168 0076146  29.9447  35.6257 12.33031830743229

Sigue COSMOS 1823 DEB en tiempo real con AllMySat

Download on the App Store